This is the latest recevied weather packets stored in our database for station/object DM1HF-13. If no packets are shown the sender has not sent any weather packets the latest 10 day(s).
| Time | Temp. | Humidity | Pressure | Rain* | Wind** | Luminosity | Snow |
|---|---|---|---|---|---|---|---|
| 1777188316 | 8.33° C | 65% | 1026.9 hPa | 0 mm | - | 532 W/m² | - |
| 1777188016 | 8.33° C | 65% | 1026.8 hPa | 0 mm | - | 525 W/m² | - |
| 1777187717 | 8.33° C | 65% | 1026.9 hPa | 0 mm | - | 520 W/m² | - |
| 1777187416 | 7.78° C | 67% | 1026.8 hPa | 0 mm | - | 507 W/m² | - |
| 1777187116 | 7.78° C | 69% | 1026.8 hPa | 0 mm | - | 497 W/m² | - |
| 1777186816 | 7.22° C | 70% | 1026.7 hPa | 0 mm | - | 482 W/m² | - |
| 1777186516 | 7.22° C | 72% | 1026.7 hPa | 0 mm | - | 462 W/m² | - |
| 1777186217 | 6.67° C | 72% | 1026.6 hPa | 0 mm | - | 445 W/m² | - |
| 1777185916 | 7.22° C | 72% | 1026.6 hPa | 0 mm | - | 409 W/m² | - |
| 1777185616 | 7.22° C | 73% | 1026.6 hPa | 0 mm | - | 123 W/m² | - |
| 1777185316 | 6.67° C | 73% | 1026.6 hPa | 0 mm | - | 77 W/m² | - |
| 1777185016 | 6.67° C | 74% | 1026.5 hPa | 0 mm | - | 53 W/m² | - |
| 1777184716 | 6.67° C | 74% | 1026.5 hPa | 0 mm | - | 83 W/m² | - |
| 1777184416 | 6.11° C | 75% | 1026.4 hPa | 0 mm | - | 59 W/m² | - |
| 1777184117 | 6.67° C | 75% | 1026.4 hPa | 0 mm | - | 54 W/m² | - |
| 1777183816 | 6.11° C | 76% | 1026.4 hPa | 0 mm | - | 47 W/m² | - |
| 1777183516 | 6.11° C | 77% | 1026.3 hPa | 0 mm | - | 44 W/m² | - |
| 1777183216 | 5.56° C | 77% | 1026.2 hPa | 0 mm | - | 41 W/m² | - |
| 1777182916 | 5.56° C | 77% | 1026.1 hPa | 0 mm | - | 40 W/m² | - |
| 1777182617 | 5.56° C | 77% | 1026 hPa | 0 mm | - | 39 W/m² | - |
| 1777182316 | 5.56° C | 77% | 1026 hPa | 0 mm | - | 37 W/m² | - |
| 1777182016 | 5.56° C | 78% | 1025.8 hPa | 0 mm | - | 35 W/m² | - |
| 1777181716 | 5° C | 78% | 1025.8 hPa | 0 mm | - | 34 W/m² | - |
| 1777181416 | 5° C | 78% | 1025.7 hPa | 0 mm | - | 32 W/m² | - |
| 1777181116 | 5° C | 79% | 1025.5 hPa | 0 mm | - | 30 W/m² | - |
* Rain latest hour (hover to see other rain measurements)
** Current wind speed in m/s (hover to see current wind gust speed)